Weather History for Gillette, WY

Change the Weather History Date:

Monday, January 14, 2013

  Actual Average Record
Temperature  
Mean Temperature 8 °F 26 °F  
Max Temperature 14 °F 38 °F - ()
Min Temperature 1 °F 15 °F - ()
Degree Days  
Heating Degree Days 57 39  
Month to date heating degree days 614 551  
Since 1 July heating degree days 3454 3692  
Cooling Degree Days 0 0  
Month to date cooling degree days 0 0  
Year to date cooling degree days 0 0  
Moisture  
Dew Point -2 °F    
Average Humidity 67    
Maximum Humidity 76    
Minimum Humidity 57    
Precipitation  
Precipitation 0.00 in 0.01 in - ()
Month to date precipitation 0.12 0.14  
Year to date precipitation 0.12 0.14  
Sea Level Pressure  
Sea Level Pressure 30.22 in    
Wind  
Wind Speed 14 mph (SW)    
Max Wind Speed 21 mph    
Max Gust Speed 24 mph    
Visibility 10 miles    
Events      
T = Trace of Precipitation, MM = Missing Value Source: NWS Daily Summary

Daily Weather History Graph

Daily Weather History Graph

Search for Another Location

Airport:

Trip Planner

Search our weather history database for the weather conditions in past years. The results will help you decide how hot, cold, wet, or windy it might be!

Date:

Astronomy

Jan. 14, 2013 Rise Set
Actual Time 7:35 AM MST 4:48 PM MST
Civil Twilight 7:02 AM MST 5:20 PM MST
Nautical Twilight 6:26 AM MST 5:56 PM MST
Astronomical Twilight 5:52 AM MST 6:31 PM MST
Moon 9:00 AM MST (1/14) 8:46 PM MST (1/14)
Length of Visible Light 10h 17m
Length of Day
9h 13m
Waxing Crescent, 12% of the Moon is Illuminated
Jan 14
Waxing Crescent
Jan 18
First Quarter
Jan 26
Full
Feb 3
Last Quarter
Feb 10
New

Hourly Weather History & Observations

Time (MST) Temp. Windchill Dew Point Humidity Pressure Visibility Wind Dir Wind Speed Gust Speed Precip Events Conditions
12:53 AM 5.0 °F -13.6 °F -2.9 °F 70% 30.27 in 10.0 mi WSW 16.1 mph - N/A   Overcast
1:53 AM 5.0 °F -13.6 °F -4.0 °F 66% 30.26 in 10.0 mi WSW 16.1 mph - N/A   Overcast
2:53 AM 3.9 °F -13.7 °F -4.0 °F 70% 30.27 in 10.0 mi SW 13.8 mph - N/A   Overcast
3:53 AM 3.9 °F -14.3 °F -5.1 °F 66% 30.27 in 10.0 mi WSW 15.0 mph - N/A   Mostly Cloudy
4:53 AM 1.9 °F -16.9 °F -6.0 °F 69% 30.30 in 10.0 mi WSW 15.0 mph - N/A   Clear
5:53 AM 1.9 °F -14.7 °F -6.0 °F 69% 30.31 in 10.0 mi West 11.5 mph - N/A   Mostly Cloudy
6:53 AM 5.0 °F -11.6 °F -5.1 °F 63% 30.31 in 10.0 mi WSW 12.7 mph - N/A   Mostly Cloudy
7:53 AM 3.9 °F -11.3 °F -4.0 °F 70% 30.32 in 10.0 mi WSW 10.4 mph - N/A   Mostly Cloudy
8:53 AM 9.0 °F -5.1 °F -0.9 °F 64% 30.32 in 10.0 mi SW 10.4 mph - N/A   Overcast
9:53 AM 10.0 °F -3.7 °F -0.0 °F 64% 30.31 in 10.0 mi SW 10.4 mph - N/A   Overcast
10:53 AM 10.9 °F 0.2 °F -0.0 °F 61% 30.29 in 10.0 mi SW 6.9 mph - N/A   Clear
11:53 AM 12.0 °F -2.7 °F 1.0 °F 61% 30.25 in 10.0 mi WSW 12.7 mph - N/A   Scattered Clouds
12:53 PM 12.9 °F 0.7 °F 1.0 °F 59% 30.21 in 10.0 mi SSW 9.2 mph - N/A   Scattered Clouds
1:53 PM 12.9 °F 0.7 °F 1.9 °F 62% 30.20 in 10.0 mi SW 9.2 mph - N/A   Clear
2:53 PM 14.0 °F -2.5 °F 1.4 °F 57% 29.97 in 10.0 mi SW 17.3 mph 24.2 mph N/A   Clear
3:53 PM 12.2 °F -4.3 °F 1.4 °F 62% 29.95 in 10.0 mi SSW 16.1 mph - N/A   Clear
4:53 PM 10.9 °F -6.5 °F -0.0 °F 61% 30.18 in 10.0 mi SW 17.3 mph - N/A   Clear
5:53 PM 10.0 °F -5.2 °F -0.0 °F 64% 30.20 in 10.0 mi SW 12.7 mph - N/A   Clear
6:53 PM 9.0 °F -7.3 °F -0.9 °F 64% 30.19 in 10.0 mi SSW 13.8 mph - N/A   Scattered Clouds
7:53 PM 9.0 °F -9.0 °F -2.9 °F 59% 30.17 in 10.0 mi SW 17.3 mph - N/A   Mostly Cloudy
8:53 PM 9.0 °F -9.5 °F -4.0 °F 56% 30.16 in 10.0 mi SW 18.4 mph - N/A   Mostly Cloudy
9:53 PM 8.1 °F -10.7 °F -4.0 °F 58% 30.16 in 10.0 mi SW 18.4 mph - N/A   Mostly Cloudy
10:53 PM 10.0 °F -7.1 °F -2.0 °F 58% 30.16 in 10.0 mi WSW 16.1 mph - N/A   Overcast
11:53 PM 10.0 °F -7.6 °F -2.0 °F 58% 30.15 in 10.0 mi SW 17.3 mph - N/A   Overcast